YAMAL 402 (39022 NORAD) Tracking and Keplerian Element Data

This shows tracking and keplerian element data for the satellite.

Feedback or suggestion? Click here.




ElementValue
Catalog39022
NameYAMAL 402
Epoch Orbit4440
Epoch Day34.8134925
Epoch Year2025
RAAN111.0963
Inclination0.0239
Eccentricity0.0004377
Argument of Perigee202.4688
Mean Anonmoly168.3945
Mean Motion1.0027161
Decay Rate9E-07
L11 39022U 12070A 25034.81349250 .00000090 00000+0 00000+0 0 9999
L22 39022 0.0239 111.0963 0004377 202.4688 168.3945 1.00271610 44400



Live tracking and technical data element details for YAMAL 402 (NORAD 39022). YAMAL 402 can be tracked NOW for your location showing map with azimuth and elevation plus other details from your city location.







IsCatalogInMostPopularTable: catalog: 39022, numindb: 576
Update: records affected: 1



GetName: 39022 YAMAL 402

Hit Count: updated at: Fri, 16 May 2025 10:21:17 GMT